Content
SEND FEEDBACK

Daily
Averages
Monthly
Summary
United States of America

VERNON, VERMONT


Home > North America > United States > Vermont
Elevation: 238 feet     Latitude: 42 46N     Longitude: 072 31W

WEATHER
 
SELECT A DAY
Number of Records: 451,352;   Date Range: 1/1/95 - 9/29/14
 
SHARE

PRINT THIS DATA

[ ← Previous Day ]
WEATHER ALMANAC - JANUARY 8, 2014
[ Next Day → ]
[ °C ]   °F
Weather ElementAverageHighLow
Temperature11 °F19.4 °F (1:35 pm)3.2 °F (7:35 am)
Dewpoint-3.3 °F3.2 °F (9:55 pm)-11.2 °F (12:35 am)
Humidity53.5 %73 % (8:15 pm)42 % (12:35 pm)
Barometer30.34 in30.42 in (7:35 pm)30.17 in (12:35 am)
Wind Speed5.5 mph12.7 mph (2:15 pm)
Wind Gust17.3 mph (2:35 pm)
Weather ElementAverage
Visibility10 mi
Wind DirectionSSE (160 °)

Weather ElementTotal
Precipitation---
Heating Degree Days53.7 (Base 65)
Averaged from 71 records on January 8, 2014
WEATHER CONDITIONS BREAKOUT
WIND DIRECTION BREAKOUT
WEATHER BY HOUR - JANUARY 8, 2014
[ °C ]   °F
Local TimeTemperatureDewpointHumidityBarometerVisibilityWind DirectionWind SpeedGust SpeedPrecipitationEventsConditions
12:35 AM6.8 °F-11.2 °F44 %30.17 in10.0 miSW (230°)9.2 mphClear
12:55 AM6.8 °F-9.4 °F48 %30.19 in10.0 miSSW (210°)8.1 mphClear
1:15 AM6.8 °F-9.4 °F48 %30.19 in10.0 miSouth (180°)5.8 mphClear
1:35 AM6.8 °F-11.2 °F44 %30.20 in10.0 miSouth (170°)5.8 mphClear
1:55 AM5.0 °F-11.2 °F47 %30.21 in10.0 miSSW (200°)5.8 mphClear
2:15 AM5.0 °F-9.4 °F52 %30.22 in10.0 miSSW (210°)8.1 mphClear
2:35 AM5.0 °F-9.4 °F52 %30.23 in10.0 miSSW (210°)5.8 mphClear
2:55 AM6.8 °F-9.4 °F48 %30.23 in10.0 miSW (220°)8.1 mphClear
3:15 AM6.8 °F-9.4 °F48 %30.24 in10.0 miSSW (210°)9.2 mph16.1 mphClear
3:35 AM6.8 °F-9.4 °F48 %30.25 in10.0 miSW (220°)10.4 mphClear
3:55 AM6.8 °F-9.4 °F48 %30.26 in10.0 miSW (220°)9.2 mphClear
4:15 AM6.8 °F-9.4 °F48 %30.26 in10.0 miSW (220°)6.9 mphClear
4:35 AM6.8 °F-7.6 °F52 %30.27 in10.0 miSouth (180°)4.6 mphClear
4:55 AM5.0 °F-7.6 °F56 %30.27 in10.0 miSouth (180°)4.6 mphClear
5:15 AM5.0 °F-7.6 °F56 %30.28 in10.0 miSouth (190°)5.8 mphClear
5:35 AM6.8 °F-7.6 °F52 %30.28 in10.0 miSouth (180°)8.1 mphClear
5:55 AM5.0 °F-9.4 °F52 %30.29 in10.0 miSW (220°)9.2 mphClear
6:15 AM5.0 °F-7.6 °F56 %30.30 in10.0 miSSW (210°)5.8 mphClear
6:35 AM5.0 °F-7.6 °F56 %30.31 in10.0 miCalmClear
6:55 AM5.0 °F-7.6 °F56 %30.32 in10.0 miSouth (170°)6.9 mphClear
7:15 AM5.0 °F-7.6 °F56 %30.33 in10.0 miSouth (190°)5.8 mphClear
7:35 AM3.2 °F-7.6 °F61 %30.34 in10.0 miSSW (200°)6.9 mphClear
7:55 AM3.2 °F-7.6 °F61 %30.35 in10.0 miSSW (210°)4.6 mphClear
8:15 AM5.0 °F-5.8 °F61 %30.37 in10.0 miSSW (210°)4.6 mphClear
8:35 AM6.8 °F-5.8 °F56 %30.38 in10.0 miSW (220°)8.1 mphClear
8:55 AM8.6 °F-5.8 °F52 %30.38 in10.0 miSW (220°)10.4 mphClear
9:15 AM8.6 °F-5.8 °F52 %30.38 in10.0 miSW (230°)6.9 mphClear
9:35 AM8.6 °F-5.8 °F52 %30.38 in10.0 miWSW (240°)4.6 mphClear
9:55 AM10.4 °F-5.8 °F48 %30.38 in10.0 miCalmClear
10:15 AM10.4 °F-5.8 °F48 %30.40 in10.0 miSW (230°)4.6 mphClear
10:35 AM12.2 °F-4.0 °F48 %30.39 in10.0 miCalmClear
10:55 AM14.0 °F-4.0 °F45 %30.38 in10.0 miWNW (290°)3.5 mphClear
11:15 AM14.0 °F-4.0 °F45 %30.37 in10.0 miCalmClear
11:35 AM15.8 °F-2.2 °F45 %30.36 in10.0 miSW (220°)10.4 mphClear
11:55 AM15.8 °F-2.2 °F45 %30.35 in10.0 miSW (230°)6.9 mphClear
12:15 PM15.8 °F-2.2 °F45 %30.34 in10.0 miWSW (240°)5.8 mphClear
12:35 PM17.6 °F-2.2 °F42 %30.34 in10.0 miSSW (210°)8.1 mphClear
12:55 PM17.6 °F-0.4 °F45 %30.34 in10.0 miSSW (210°)10.4 mphClear
1:15 PM17.6 °F-2.2 °F42 %30.34 in10.0 miSSW (210°)10.4 mphClear
1:35 PM19.4 °F-0.4 °F42 %30.33 in10.0 miSSW (210°)8.1 mphClear
1:55 PM19.4 °F-0.4 °F42 %30.33 in10.0 miSSW (210°)10.4 mphClear
2:15 PM19.4 °F-0.4 °F42 %30.34 in10.0 miSSW (200°)12.7 mphClear
2:35 PM19.4 °F-0.4 °F42 %30.34 in10.0 miSSW (210°)12.7 mph17.3 mphClear
2:55 PM19.4 °F1.4 °F46 %30.34 in10.0 miSSW (210°)10.4 mphClear
3:15 PM19.4 °F-0.4 °F42 %30.35 in10.0 miSSW (200°)10.4 mphClear
3:35 PM19.4 °F-0.4 °F42 %30.35 in10.0 miSouth (190°)10.4 mphClear
3:55 PM19.4 °F-0.4 °F42 %30.35 in10.0 miSW (220°)9.2 mph17.3 mphClear
4:15 PM17.6 °F-0.4 °F45 %30.35 in10.0 miSSW (200°)8.1 mphClear
4:35 PM17.6 °F-0.4 °F45 %30.35 in10.0 miSSW (210°)6.9 mphClear
4:55 PM17.6 °F-0.4 °F45 %30.36 in10.0 miSW (220°)6.9 mphClear
5:15 PM17.6 °F-0.4 °F45 %30.37 in10.0 miCalmClear
5:35 PM14.0 °F-0.4 °F53 %30.38 in10.0 miCalmClear
5:55 PM14.0 °F1.4 °F57 %30.38 in10.0 miWSW (240°)3.5 mphClear
6:15 PM14.0 °F1.4 °F57 %30.40 in10.0 miCalmClear
6:35 PM12.2 °F1.4 °F62 %30.39 in10.0 miCalmClear
6:55 PM12.2 °F1.4 °F62 %30.40 in10.0 miCalmClear
7:15 PM12.2 °F-0.4 °F57 %30.41 in10.0 miCalmClear
7:35 PM10.4 °F-0.4 °F62 %30.42 in10.0 miSSW (200°)3.5 mphClear
7:55 PM10.4 °F-0.4 °F62 %30.42 in10.0 miSW (220°)3.5 mphClear
8:15 PM8.6 °F1.4 °F73 %30.42 in10.0 miSSW (210°)4.6 mphClear
8:35 PM8.6 °F1.4 °F73 %30.42 in10.0 miSSW (210°)5.8 mphClear
8:55 PM8.6 °F1.4 °F73 %30.41 in10.0 miCalmScattered Clouds
9:15 PM8.6 °F1.4 °F73 %30.42 in10.0 miCalmMostly Cloudy
9:35 PM10.4 °F1.4 °F67 %30.42 in10.0 miCalmMostly Cloudy
9:55 PM10.4 °F3.2 °F73 %30.41 in10.0 miCalmOvercast
10:15 PM10.4 °F3.2 °F73 %30.42 in10.0 miSSW (210°)3.5 mphOvercast
10:35 PM10.4 °F3.2 °F73 %30.42 in10.0 miCalmOvercast
10:55 PM12.2 °F3.2 °F67 %30.41 in10.0 miCalmOvercast
11:15 PM12.2 °F3.2 °F67 %30.41 in10.0 miSSW (200°)3.5 mphOvercast
11:35 PM12.2 °F3.2 °F67 %30.40 in10.0 miSSW (200°)4.6 mphOvercast
11:55 PM12.2 °F3.2 °F67 %30.39 in10.0 miCalmOvercast
Hourly data recorded from KEEN, located miles away from Vernon, Vermont







STORIES FROM OUR PARTNERS